{"data":{"norad_id":52552,"intl_designator":"2022-051V","name":"STARLINK-3966","alt_names":[],"object_type":"PAYLOAD","status":"ACTIVE","operator":null,"country":"US","launch_date":"2022-05-13","launch_site_code":"AFWTR","launch_vehicle":null,"mission":null,"orbit_class":"UNKNOWN","rcs_meters":null,"size_class":null,"mass_kg":null,"dimensions":null,"purposes":["comms"],"wikipedia_slug":null,"has_3d_model":false,"image_url":null,"decayed_at":null,"tle_current":{"epoch":"2026-09-20T04:27:40.616064Z","epoch_age_seconds":90497,"freshness":"FRESH","line1":"1 52552U 22051V   26263.18588676  .00001625  00000+0  64089-4 0  9991","line2":"2 52552  53.1607 323.2530 0000935  59.2507 300.8586 15.31708672240989","mean_motion":15.31708672,"eccentricity":9.35e-5,"inclination_deg":53.1607,"raan_deg":323.253,"arg_perigee_deg":59.2507,"mean_anomaly_deg":300.8586,"bstar":6.4089e-5,"rev_number":24098,"period_min":94.012655691225,"perigee_km":470.07377698485,"apogee_km":471.35451214888,"semimajor_km":6848.8511445669,"source":"CELESTRAK","updated_at":"2026-09-20T09:00:40.061589Z"}}}